Home   Weather   Fort Collins   Past weeks
Flag for USA

Past Weather in Fort Collins, Colorado, USA — Yesterday and Last 2 Weeks

Now
43 °F

Clear.


Feels Like: 40 °F
Forecast: 70 / 40 °F
Wind: 5 mph from Northwest

Location: Fort Collins-Loveland Municipal Airport

Current Time: May 25, 2019 at 2:11:21 am

Latest Report: May 25, 2019 at 12:56 am


Visibility: 10 mi

Pressure: 29.89 "Hg (24.81 "Hg at 1522m altitude)

Humidity: 74%

Dew Point: 35 °F

Location of Fort CollinsLocation

Past Weather in Fort Collins — Graph

°F

Fort Collins Temperature Yesterday

Maximum temperature yesterday: 70 °F (at 2:56 pm)
Minimum temperature yesterday: 33 °F (at 5:56 am)
Average temperature yesterday: 51 °F

High & Low Weather Summary for the Past Weeks

 TemperatureHumidityPressure
High84 °F (May 15, 1:56 pm)100% (May 20, 6:03 am)30.15 "Hg (May 20, 6:03 am)
Low32 °F (May 20, 8:56 pm)17% (May 13, 2:56 pm)29.41 "Hg (May 17, 11:56 am)
Average51 °F66%29.83 "Hg
* Reported May 10 12:56 am — May 25 12:56 am, Fort Collins. Weather by CustomWeather, © 2019

Note: Actual official high and low records may vary slightly from our data, if they occured in-between our weather recording intervals... More about our weather records

Advertising

Fort Collins Weather History for the Previous 24 Hours

Scroll right to see more
 ConditionsComfort  
Time TempWeatherWind HumidityBarometerVisibility
12:56 am
Sat, May 25
43 °FClear.5 mph74%29.89 "Hg10 mi
11:56 pm
Fri, May 24
47 °FClear.8 mph61%29.88 "Hg10 mi
10:56 pm54 °FClear.12 mph37%29.85 "Hg10 mi
9:56 pm58 °FClear.12 mph31%29.82 "Hg10 mi
8:56 pm60 °FClear.15 mph28%29.78 "Hg10 mi
7:56 pm61 °FSunny.12 mph30%29.80 "Hg10 mi
6:56 pm66 °FSunny.14 mph24%29.79 "Hg10 mi
5:56 pm68 °FSunny.10 mph22%29.79 "Hg10 mi
4:56 pm70 °FSunny.16 mph20%29.78 "Hg10 mi
3:56 pm70 °FSunny.16 mph19%29.76 "Hg10 mi
2:56 pm70 °FSunny.12 mph21%29.78 "Hg10 mi
1:56 pm68 °FSunny.17 mph23%29.78 "Hg10 mi
12:56 pm67 °FSunny.16 mph26%29.79 "Hg10 mi
11:56 am65 °FSunny.22 mph28%29.79 "Hg10 mi
10:56 am63 °FSunny.15 mph31%29.80 "Hg10 mi
9:56 am60 °FSunny.14 mph36%29.82 "Hg10 mi
8:56 am58 °FSunny.14 mph36%29.83 "Hg10 mi
7:56 am44 °FSunny.10 mph71%29.86 "Hg10 mi
6:56 am37 °FSunny.9 mph96%29.89 "Hg7 mi
6:23 am34 °FFog.3 mph100%29.91 "Hg1 mi
5:56 am33 °FFog.3 mph100%29.90 "Hg0 mi
4:56 am34 °FFog.5 mph97%29.90 "Hg0 mi
4:33 am36 °FFog.No wind93%29.89 "Hg0 mi
4:21 am36 °FFog.No wind100%29.90 "Hg1 mi
3:56 am37 °FFog.No wind96%29.89 "Hg1 mi
3:35 am37 °FFog.No wind100%29.90 "Hg3 mi
3:05 am36 °FFog.6 mph100%29.90 "Hg2 mi
2:38 am36 °FFog.5 mph100%29.90 "Hg2 mi
Weather by CustomWeather, © 2019

See weather overview